Location: *
(58.4167°N, 22.5000°E)
Time: 19:21:29
(UTC+00:00)

Meteor 2-3 Rocket - Pass Details

Date: 22 September 2019
Orbit: 842 x 885 km, 81.2° (Epoch: 20 October)

Event Time Altitude Azimuth Distance (km) Brightness Sun altitude
Rises 21:27:16 0° 344° (NNW) 3,419 8.0 -30.4°
Reaches altitude 10° 21:29:47 10° 350° (N) 2,483 7.0 -30.5°
Enters shadow 21:34:46 47° 50° (NE) 1,119 4.4 -30.7°
